Regional Weather Roundup
Issued by NWS

Home | Current Version | Previous Version | Text Only | Print | Product List | Glossary On
Versions: 1 2 3 4 5 6 7 8 9 10 11 12 13 14 15 16 17 18 19 20 21 22 23 24 25 26 27 28 29 30 31 32 33 34 35 36 37 38 39 40 41 42 43 44 45 46 47 48 49 50
000
ASUS44 KOUN 301110
RWROK

WEATHER ROUNDUP FOR OKLAHOMA
NATIONAL WEATHER SERVICE NORMAN OK
600 AM CDT TUE MAY 30 2017

NOTE: "FAIR" INDICATES FEW OR NO CLOUDS BELOW 12,000 FEET WITH NO
      SIGNIFICANT WEATHER AND/OR OBSTRUCTIONS TO VISIBILITY.

OKZ001>007-009>012-014-015-017-301200-
NORTHWEST OKLAHOMA AND THE PANHANDLE

CITY           SKY/WX    TMP DP  RH WIND       PRES   REMARKS
GAGE           CLOUDY    59  56  89 E5        30.13S
GUYMON         CLEAR     51  51 100 W9        30.17R
ENID/WOODRING  CLOUDY    63  57  82 N12G22    30.11S
$$

OKZ016-021>023-033>039-044-045-301200-
SOUTHWEST OKLAHOMA

CITY           SKY/WX    TMP DP  RH WIND       PRES   REMARKS
LAWTON/REGL    CLEAR     57  55  93 CALM      30.10R
LAWTON/FT SILL CLEAR     60  55  83 CALM      30.10R
FREDERICK      CLEAR     65  52  62 NW9       30.08R
CLINTON        MOCLDY    62  52  69 N9        30.15S
HOBART         PTCLDY    63  53  70 N6        30.13R
ALTUS AFB      CLEAR     61  48  62 N8        30.11R
$$

OKZ018>020-024>031-301200-
CENTRAL OKLAHOMA

CITY           SKY/WX    TMP DP  RH WIND       PRES   REMARKS
OKLAHOMA CITY  PTCLDY    62  52  69 W6        30.10R
OKC/WILEY POST PTCLDY    64  54  69 W7        30.09R
OKC/TINKER AFB CLEAR     65  53  63 SW6       30.08R
STILLWATER     MOCLDY    66  54  65 N16G26    30.08R
GUTHRIE        CLOUDY    63  55  75 NW5       30.10R
$$

OKZ008-013-054>072-301200-
NORTHEAST OKLAHOMA

CITY           SKY/WX    TMP DP  RH WIND       PRES   REMARKS
TULSA          MOCLDY    67  61  81 S8        30.04R
TULSA/JONES    PTCLDY    60  58  92 CALM      30.07R
PONCA CITY     CLOUDY    62  56  80 NE10      30.13F
BARTLESVILLE   PTCLDY    58  56  93 CALM      30.07R
MUSKOGEE       CLEAR     62  59  90 CALM      30.08R
$$

OKZ032-040>043-046>053-073>077-301200-
SOUTH CENTRAL/SOUTHEAST OKLAHOMA

CITY           SKY/WX    TMP DP  RH WIND       PRES   REMARKS
ARDMORE/DWNTWN   N/A     55  54  94 CALM      30.09R
MCALESTER      CLEAR     59  57  93 CALM      30.08S
$$





USA.gov is the U.S. government's official web portal to all federal, state and local government web resources and services.